Wind_Speed
34 35 36 37 39 40 41 42 44 45 45 46 47 47 48 48 48 49 49 49 49 49 49 50 50 49 49 48 48 48 48 48 47 48 49 49 49 49 50 50 50 50 50
36 37 38 39 41 42 43 44 45 46 46 47 47 48 48 48 49 50 50 50 50 50 50 50 49 48 48 48 48 47 47 47 47 48 49 49 49 49 49 49 48 48 49
38 39 40 41 43 43 44 46 46 47 47 48 48 49 49 49 50 50 50 49 49 49 49 49 49 48 48 48 47 47 47 48 48 48 48 48 48 48 48 48 48 49 49
39 41 42 43 43 44 46 47 48 48 48 49 49 49 50 50 50 50 50 49 49 49 49 49 48 48 48 47 47 47 47 47 47 47 47 47 48 47 47 47 47 48 48
41 42 43 44 45 46 47 48 48 49 49 49 50 50 50 50 50 50 50 49 49 48 48 48 48 47 47 47 46 46 46 46 47 46 46 46 46 46 46 46 46 46 47
42 43 44 45 47 48 49 49 50 50 50 51 51 51 51 51 50 49 49 49 48 48 48 47 47 47 46 46 46 45 45 45 45 45 45 45 45 45 45 45 45 45 46
44 44 46 47 48 49 50 50 50 51 51 51 51 51 51 50 50 49 49 48 48 48 47 46 46 46 46 45 45 45 45 44 44 44 44 44 44 44 44 44 45 45 46
45 46 47 48 49 49 50 50 50 50 51 51 51 51 50 50 49 49 49 48 47 46 46 46 45 45 44 44 44 44 44 44 44 44 44 45 45 44 44 44 44 44 45
47 48 49 50 50 50 50 51 51 51 51 51 51 50 49 49 49 48 47 47 46 46 45 45 44 44 43 43 43 43 43 43 44 44 44 44 45 45 44 44 44 44 44
49 50 51 51 52 52 52 52 51 51 51 50 50 49 48 47 47 47 46 45 44 44 44 44 44 44 43 43 43 43 43 43 43 43 44 44 44 44 44 44 44 44 44
51 51 52 53 53 53 53 52 51 50 50 49 48 47 46 46 46 45 44 43 43 43 43 42 43 43 43 43 43 43 43 43 42 42 42 42 42 42 43 43 43 43 43
52 53 53 53 53 53 52 51 51 50 49 48 46 45 45 45 44 43 43 43 42 42 42 42 42 43 43 42 42 42 42 42 42 42 42 42 42 42 43 43 43 42 42
53 53 53 53 53 52 51 50 50 49 48 46 45 44 44 43 43 43 43 42 42 42 41 41 42 42 42 42 42 41 41 41 41 41 41 41 42 42 42 42 42 42 42
53 53 53 52 52 51 50 49 48 47 47 46 45 44 43 43 43 43 42 42 42 41 41 41 41 41 41 41 41 41 41 41 40 40 41 41 41 41 41 41 42 42 41
52 52 51 51 50 49 48 48 47 46 46 45 44 43 43 43 43 42 41 41 41 41 41 41 41 41 40 40 40 40 40 40 40 40 40 41 41 41 41 41 41 41 41
51 51 50 50 50 49 48 47 46 45 44 44 43 43 42 42 42 41 41 40 40 40 39 39 39 39 39 39 39 39 39 40 39 39 39 39 40 40 40 40 40 40 40
51 51 50 50 49 48 48 47 45 44 44 43 43 42 42 41 41 40 40 40 39 39 38 38 38 38 38 38 38 38 38 38 38 38 38 38 38 38 38 38 38 38 38
51 51 50 49 49 48 47 46 45 44 43 42 42 42 42 42 41 40 40 39 38 38 38 37 37 37 37 36 36 35 35 36 36 36 36 36 36 36 36 36 36 36 36
51 50 50 49 48 47 47 46 45 45 44 42 42 42 42 41 41 40 39 38 37 37 37 37 36 36 35 34 34 34 33 33 34 34 34 34 34 33 34 34 34 34 34
50 50 50 49 48 48 47 46 45 44 44 43 42 41 41 40 39 39 38 37 37 36 36 35 35 34 33 33 33 32 32 32 32 33 33 32 32 32 32 32 32 31 31
49 49 49 48 48 47 46 46 45 44 43 42 41 40 39 38 37 37 36 36 36 35 34 33 32 32 32 32 32 31 31 31 31 31 31 31 31 31 30 30 29 29 29
49 49 48 47 46 45 45 44 44 43 41 40 39 38 37 37 36 35 35 34 33 32 31 31 30 30 30 30 30 30 30 30 30 30 29 29 29 28 27 27 27 27 27
48 47 46 45 44 43 43 42 41 40 39 38 37 36 35 34 33 33 32 31 30 29 28 28 28 28 29 29 29 29 29 28 28 29 28 28 27 25 25 25 25 25 25
46 45 44 42 41 41 40 39 38 37 37 36 35 34 33 32 31 30 29 28 27 27 27 27 27 27 28 28 28 27 27 27 27 27 26 25 25 24 24 24 24 24 23
43 42 41 40 39 38 37 36 36 35 34 33 32 31 30 29 28 26 26 25 25 25 25 25 26 26 27 26 26 25 25 25 25 24 24 23 23 23 22 22 22 22 22
41 40 38 37 37 36 35 34 33 33 32 31 29 28 27 26 25 24 24 23 23 23 24 24 25 25 25 24 24 24 24 23 23 22 22 22 22 22 21 21 22 22 22
Wind_Direction
283 284 285 286 287 287 288 289 290 290 290 290 290 290 290 289 289 289 289 288 287 286 285 285 284 283 283 283 282 280 279 279 278 278 279 279 279 278 277 276 275 273 271
286 286 287 287 288 289 289 290 291 291 291 291 291 290 290 290 289 289 288 288 287 286 285 285 284 283 283 282 281 281 280 279 279 279 280 279 279 279 278 277 276 274 272
287 288 289 289 289 290 291 291 291 291 291 291 291 290 289 289 289 288 287 287 286 286 285 284 283 283 282 282 281 281 280 280 280 280 280 279 279 279 279 278 278 276 274
289 289 290 290 291 292 292 292 292 291 291 291 291 290 289 289 288 288 287 287 286 286 285 284 283 282 282 282 282 282 281 281 281 280 280 280 279 279 279 279 279 278 276
291 291 291 291 292 292 292 292 292 292 291 291 290 290 290 289 288 287 287 286 286 286 286 285 284 283 282 282 283 283 282 282 282 281 281 280 280 280 280 279 279 279 277
292 292 293 293 293 293 293 292 292 292 291 291 290 290 289 288 288 287 287 286 286 286 286 285 284 283 282 283 283 283 283 283 282 282 281 280 281 281 281 281 280 279 278
293 294 294 294 294 293 293 293 292 292 291 290 290 289 288 288 287 287 286 287 287 286 285 285 284 283 283 283 282 283 283 284 282 282 282 281 281 282 282 282 282 281 280
294 295 295 295 295 295 294 293 293 292 291 291 290 289 288 288 287 287 287 286 286 286 285 284 283 283 283 283 283 283 284 284 284 283 283 283 283 283 283 283 283 282 281
294 295 295 295 295 295 295 294 293 292 292 291 291 290 289 288 288 288 287 287 286 285 284 284 283 283 284 284 283 283 283 284 284 283 283 283 283 282 283 283 283 282 282
295 295 295 295 295 295 295 294 293 293 292 292 291 291 289 288 288 287 286 287 286 285 284 284 284 284 284 284 284 284 284 284 284 284 285 284 284 283 283 283 283 283 282
295 295 295 295 295 295 295 294 294 293 293 293 292 290 289 288 287 286 286 286 285 285 284 284 284 284 284 284 284 285 284 284 285 285 285 286 285 285 285 285 285 285 284
294 295 295 295 295 295 294 294 294 293 293 292 292 290 289 287 287 286 286 286 285 284 283 283 283 284 284 284 285 285 285 284 285 285 285 286 286 286 286 286 286 286 286
295 295 295 295 295 295 295 294 293 293 292 291 291 290 289 287 287 286 286 285 284 284 283 283 283 284 284 284 285 285 285 285 286 286 286 286 286 286 286 286 287 287 287
295 295 295 295 295 295 294 294 293 292 291 290 289 288 288 287 287 286 285 285 285 284 283 283 284 284 284 284 285 286 286 286 286 286 286 286 286 287 287 287 287 287 287
295 295 295 295 295 294 294 293 293 292 291 290 289 287 287 286 286 286 285 284 284 284 284 284 285 285 285 285 286 287 288 288 288 287 287 287 287 287 287 287 287 287 286
295 295 295 295 294 294 293 292 292 292 291 290 289 288 287 286 285 285 284 284 285 285 285 285 285 286 286 286 287 288 288 289 289 288 288 288 288 289 288 288 287 287 286
295 295 295 294 293 293 292 292 291 290 290 290 289 288 287 286 286 285 284 284 284 285 286 286 285 286 286 287 288 288 289 290 290 289 289 289 289 290 289 289 289 288 288
295 295 295 294 293 292 292 292 291 290 289 289 289 288 287 285 285 284 284 284 284 285 285 286 286 286 286 287 288 289 290 290 291 291 290 291 291 290 290 291 290 290 289
295 295 295 294 293 292 292 291 290 290 289 289 288 288 287 286 285 284 283 283 283 284 285 285 286 286 286 287 288 289 291 292 292 292 292 292 292 292 292 292 292 292 292
295 295 295 294 293 293 292 291 290 289 289 289 289 288 287 286 285 283 282 281 282 283 284 284 284 285 285 286 288 290 291 292 292 292 293 293 293 294 294 294 294 294 293
296 295 295 294 294 293 292 291 290 289 289 289 288 287 286 285 283 281 281 281 281 282 282 282 283 285 285 286 288 289 290 291 292 293 294 294 295 295 295 295 295 295 294
296 295 295 294 293 293 292 291 290 289 289 289 288 286 285 284 283 281 280 280 280 280 280 281 283 285 286 287 287 288 290 291 292 294 294 295 296 296 296 296 296 296 295
296 295 295 294 293 293 293 292 290 290 289 289 287 286 284 283 282 281 279 278 278 279 280 281 282 284 286 287 287 289 289 290 291 293 294 295 295 295 297 298 299 298 296
295 295 295 294 294 294 294 293 292 290 289 288 286 285 284 283 282 280 278 277 277 278 279 281 282 285 287 287 288 289 289 290 291 293 294 294 294 294 296 298 300 300 298
295 295 294 294 294 294 294 294 293 291 288 287 285 284 282 281 280 278 276 276 277 278 279 280 283 285 287 288 288 289 290 291 292 293 294 293 292 293 296 298 300 300 300
294 294 294 294 295 295 294 294 293 291 289 286 284 282 281 279 278 276 275 274 275 278 280 281 284 286 287 288 288 288 290 291 293 294 293 292 292 292 294 298 300 300 300
Height
5712 5709 5707 5705 5702 5700 5697 5694 5691 5688 5685 5681 5678 5674 5671 5667 5664 5660 5657 5653 5650 5646 5643 5640 5637 5634 5631 5628 5625 5622 5620 5618 5616 5614 5612 5610 5608 5606 5604 5602 5601 5600 5599
5703 5700 5698 5695 5692 5689 5686 5683 5680 5676 5673 5669 5665 5662 5658 5654 5651 5647 5643 5640 5636 5633 5629 5626 5623 5620 5617 5614 5611 5609 5606 5604 5603 5600 5598 5595 5593 5591 5589 5588 5586 5585 5584
5693 5691 5688 5685 5682 5678 5675 5672 5668 5664 5661 5657 5653 5649 5645 5641 5637 5633 5630 5626 5622 5619 5616 5612 5609 5606 5604 5601 5598 5595 5593 5590 5588 5586 5584 5581 5579 5577 5575 5573 5571 5570 5568
5683 5680 5677 5674 5670 5667 5663 5660 5656 5652 5648 5644 5640 5636 5631 5627 5623 5620 5616 5612 5609 5605 5602 5599 5596 5593 5590 5587 5584 5582 5579 5576 5574 5572 5570 5567 5565 5563 5561 5560 5557 5555 5553
5673 5669 5666 5662 5659 5655 5651 5647 5643 5639 5635 5631 5627 5622 5618 5614 5610 5606 5602 5599 5595 5592 5588 5585 5582 5579 5576 5573 5571 5568 5565 5563 5560 5558 5556 5553 5551 5549 5547 5545 5543 5541 5539
5661 5658 5654 5650 5647 5643 5639 5634 5630 5626 5621 5617 5613 5608 5604 5600 5596 5592 5589 5585 5582 5578 5575 5572 5569 5566 5563 5560 5557 5554 5552 5549 5547 5544 5542 5540 5538 5535 5533 5531 5529 5527 5525
5649 5646 5642 5638 5634 5630 5625 5621 5616 5612 5607 5603 5599 5594 5590 5586 5582 5579 5575 5572 5569 5565 5562 5558 5555 5552 5549 5547 5544 5541 5538 5536 5533 5531 5529 5526 5524 5522 5520 5518 5515 5513 5510
5637 5633 5629 5625 5621 5616 5611 5607 5602 5598 5593 5589 5585 5580 5577 5573 5568 5565 5562 5558 5555 5552 5548 5545 5542 5539 5536 5533 5531 5528 5525 5523 5520 5518 5516 5513 5511 5508 5506 5504 5501 5499 5496
5625 5620 5616 5611 5607 5603 5598 5593 5588 5584 5579 5575 5570 5566 5562 5559 5555 5551 5548 5545 5542 5538 5535 5532 5529 5526 5523 5521 5518 5516 5513 5510 5507 5505 5502 5500 5497 5495 5492 5490 5488 5485 5483
5611 5607 5602 5597 5593 5588 5584 5579 5574 5569 5565 5561 5557 5552 5548 5545 5541 5537 5534 5531 5528 5526 5522 5519 5516 5514 5511 5508 5505 5503 5500 5497 5494 5491 5489 5486 5484 5481 5478 5476 5474 5471 5469
5597 5592 5588 5583 5578 5573 5569 5564 5559 5555 5551 5547 5543 5539 5535 5531 5527 5524 5520 5518 5515 5512 5509 5507 5504 5501 5498 5495 5492 5490 5487 5484 5482 5479 5476 5473 5470 5468 5465 5462 5460 5457 5455
5582 5578 5573 5568 5563 5558 5554 5549 5545 5540 5537 5533 5529 5525 5521 5517 5514 5511 5508 5505 5502 5499 5497 5494 5492 5489 5486 5483 5480 5477 5475 5472 5469 5466 5464 5461 5458 5455 5452 5449 5446 5443 5441
5567 5562 5558 5553 5548 5543 5539 5534 5530 5526 5522 5519 5515 5512 5509 5505 5501 5498 5495 5492 5489 5487 5484 5482 5479 5476 5473 5471 5468 5465 5462 5460 5457 5454 5451 5448 5445 5442 5439 5436 5433 5430 5428
5552 5547 5542 5538 5534 5529 5524 5520 5516 5512 5508 5505 5501 5498 5495 5492 5489 5485 5482 5480 5477 5474 5472 5469 5467 5464 5461 5459 5456 5453 5450 5448 5445 5442 5439 5436 5433 5430 5427 5424 5421 5418 5415
5537 5532 5527 5523 5518 5514 5510 5506 5502 5498 5494 5491 5488 5484 5482 5479 5476 5473 5470 5467 5464 5462 5459 5457 5454 5452 5449 5447 5444 5441 5438 5435 5432 5430 5427 5424 5421 5418 5414 5411 5408 5405 5403
5522 5517 5512 5508 5504 5500 5496 5493 5488 5484 5481 5477 5474 5471 5468 5466 5463 5460 5457 5455 5452 5449 5447 5445 5442 5440 5437 5435 5432 5429 5426 5423 5420 5417 5414 5411 5408 5405 5402 5399 5395 5393 5390
5506 5502 5498 5494 5489 5485 5481 5478 5475 5472 5468 5464 5461 5458 5455 5452 5450 5447 5445 5442 5440 5438 5436 5433 5431 5428 5426 5423 5421 5418 5415 5411 5408 5405 5402 5399 5396 5393 5389 5386 5383 5380 5377
5492 5487 5483 5479 5475 5471 5467 5463 5460 5458 5455 5452 5448 5444 5442 5439 5437 5435 5432 5430 5428 5426 5424 5422 5419 5417 5415 5412 5409 5407 5404 5400 5397 5394 5391 5388 5384 5381 5378 5375 5371 5368 5365
5477 5473 5468 5464 5460 5456 5453 5449 5446 5443 5441 5438 5436 5432 5429 5426 5424 5422 5420 5418 5416 5414 5412 5410 5408 5406 5403 5401 5399 5396 5393 5390 5387 5384 5380 5377 5374 5370 5367 5364 5360 5357 5354
5463 5458 5453 5450 5446 5442 5438 5435 5432 5429 5426 5424 5421 5419 5416 5413 5411 5409 5407 5406 5404 5403 5401 5399 5397 5395 5393 5391 5389 5386 5383 5380 5377 5374 5370 5367 5364 5361 5357 5354 5350 5347 5344
5448 5444 5439 5435 5431 5427 5424 5420 5417 5415 5412 5410 5407 5405 5402 5400 5399 5397 5395 5394 5393 5391 5389 5388 5386 5385 5383 5381 5379 5376 5373 5370 5367 5364 5361 5358 5355 5351 5348 5344 5341 5338 5335
5434 5429 5425 5421 5417 5413 5410 5407 5403 5401 5398 5396 5394 5391 5389 5388 5386 5385 5383 5382 5381 5380 5379 5378 5376 5375 5373 5371 5369 5366 5364 5361 5358 5355 5352 5349 5346 5342 5339 5336 5333 5330 5327
5419 5415 5411 5407 5403 5400 5397 5393 5390 5388 5385 5383 5381 5379 5377 5376 5374 5373 5372 5371 5370 5370 5369 5368 5367 5365 5363 5361 5359 5357 5355 5352 5349 5346 5343 5340 5337 5334 5331 5328 5325 5322 5319
5406 5402 5398 5394 5391 5387 5384 5381 5378 5376 5373 5371 5369 5367 5366 5364 5363 5362 5361 5361 5361 5360 5359 5358 5357 5356 5354 5352 5350 5348 5345 5343 5340 5338 5335 5332 5329 5327 5324 5321 5318 5315 5312
5393 5389 5385 5382 5379 5375 5372 5370 5367 5364 5362 5360 5358 5357 5355 5354 5353 5352 5352 5352 5351 5351 5350 5349 5348 5347 5345 5343 5341 5339 5337 5334 5332 5330 5327 5325 5322 5320 5317 5315 5312 5309 5306
5380 5377 5374 5370 5367 5364 5361 5359 5356 5354 5351 5350 5348 5347 5346 5345 5344 5344 5344 5343 5343 5343 5342 5341 5340 5338 5337 5335 5333 5331 5329 5327 5324 5322 5320 5317 5315 5313 5311 5308 5305 5303 5300